Phoenix Deer Valley, AZ

9:09 PM MST on December 06, 2019 (GMT -0700)
Phoenix-Deer Valley Municipal

Weather History for KDVT - October, 2019

Change the Weather History Date:

Saturday, October 12, 2019

  Actual Average Record
Temperature  
Mean Temperature 75 °F -  
Max Temperature 86 °F 86 °F 98 °F (1999)
Min Temperature 64 °F 64 °F 48 °F (2008)
Cooling Degree Days 10    
Growing Degree Days 25 (Base 50)    
Moisture  
Dew Point 30 °F    
Average Humidity 19    
Maximum Humidity 27    
Minimum Humidity 16    
Precipitation  
Precipitation 0.00 in - - ()
Sea Level Pressure  
Sea Level Pressure 29.82 in    
Wind  
Wind Speed 4 mph ()    
Max Wind Speed 10 mph    
Max Gust Speed -    
Visibility 10.0 miles    
Events      
Averages and records for this station are not official NWS values.
T = Trace of Precipitation, MM = Missing Value Source: Averaged Metar Reports

Daily Weather History Graph

Daily Weather History Graph

Search for Another Location

Airport or City:

Astronomy

Oct. 12, 2019 Rise Set
Actual Time 6:30 AM MST 5:58 PM MST
Civil Twilight 6:05 AM MST 6:23 PM MST
Nautical Twilight 5:36 AM MST 6:52 PM MST
Astronomical Twilight 5:07 AM MST 7:21 PM MST
Moon 5:50 PM MST (10/12) 5:18 AM MST (10/12)
Length of Visible Light 12h 17m
Length of Day
11h 27m
Waxing Gibbous, 99% of the Moon is Illuminated
Oct 12
Waxing Gibbous
Oct 13
Full
Oct 21
Last Quarter
Oct 27
New
Nov 4
First Quarter

Hourly Weather History & Observations

Time (MST) Temp. Dew Point Humidity Pressure Visibility Wind Dir Wind Speed Gust Speed Precip Events Conditions
12:53 AM 66.0 °F 21.0 °F 18% 29.83 in 10.0 mi North 3.5 mph - N/A   Clear
1:53 AM 68.0 °F 21.0 °F 17% 29.83 in 10.0 mi North 4.6 mph - N/A   Clear
2:53 AM 69.1 °F 21.9 °F 17% 29.82 in 10.0 mi NNE 3.5 mph - N/A   Clear
3:53 AM 70.0 °F 23.0 °F 17% 29.82 in 10.0 mi ENE 3.5 mph - N/A   Clear
4:53 AM 64.9 °F 23.0 °F 20% 29.82 in 10.0 mi NNW 4.6 mph - N/A   Clear
6:53 AM 64.0 °F 25.0 °F 23% 29.84 in 10.0 mi NNE 3.5 mph - N/A   Clear
7:53 AM 69.1 °F 27.0 °F 21% 29.86 in 10.0 mi NNW 3.5 mph - N/A   Clear
8:53 AM 75.9 °F 28.0 °F 17% 29.86 in 10.0 mi East 5.8 mph - N/A   Clear
9:53 AM 79.0 °F 28.9 °F 16% 29.87 in 10.0 mi East 10.4 mph - N/A   Clear
10:53 AM 81.0 °F 30.9 °F 16% 29.86 in 10.0 mi North - - N/A   Clear
11:53 AM 82.9 °F 34.0 °F 17% 29.84 in 10.0 mi SE 8.1 mph - N/A   Clear
12:53 PM 82.9 °F 35.1 °F 18% 29.82 in 10.0 mi ESE 8.1 mph - N/A   Clear
1:53 PM 84.0 °F 34.0 °F 17% 29.80 in 10.0 mi Variable 6.9 mph - N/A   Clear
2:53 PM 86.0 °F 34.0 °F 16% 29.78 in 10.0 mi SW 5.8 mph - N/A   Clear
3:53 PM 84.9 °F 33.1 °F 16% 29.77 in 10.0 mi Variable 3.5 mph - N/A   Clear
4:53 PM 84.9 °F 33.1 °F 16% 29.77 in 10.0 mi West 6.9 mph - N/A   Clear
5:53 PM 82.9 °F 33.1 °F 17% 29.77 in 10.0 mi WNW 5.8 mph - N/A   Clear
6:53 PM 78.1 °F 32.0 °F 19% 29.78 in 10.0 mi WNW 4.6 mph - N/A   Clear
7:53 PM 75.9 °F 33.1 °F 21% 29.80 in 10.0 mi Calm Calm - N/A   Clear
8:53 PM 73.0 °F 32.0 °F 22% 29.80 in 10.0 mi North 3.5 mph - N/A   Clear
9:53 PM 68.0 °F 33.1 °F 27% 29.81 in 10.0 mi Calm Calm - N/A   Clear
10:53 PM 70.0 °F 34.0 °F 27% 29.81 in 10.0 mi NE 8.1 mph - N/A   Clear
11:53 PM 69.1 °F 34.0 °F 27% 29.82 in 10.0 mi NNE 9.2 mph - N/A   Clear